This is the latest recevied weather packets stored in our database for station/object AB1AU. If no packets are shown the sender has not sent any weather packets the latest 10 day(s).
| Time | Temp. | Humidity | Pressure | Rain* | Wind** | Luminosity | Snow |
|---|---|---|---|---|---|---|---|
| 1788607663 | 16.67° C | 91% | 1011.2 hPa | 0 mm | - | 20 W/m² | - |
| 1788607358 | 16.67° C | 91% | 1011 hPa | 0 mm | - | 20 W/m² | - |
| 1788607053 | 16.67° C | 91% | 1011 hPa | 0 mm | - | 18 W/m² | - |
| 1788606753 | 16.67° C | 90% | 1010.8 hPa | 0 mm | - | 20 W/m² | - |
| 1788606452 | 16.67° C | 90% | 1010.8 hPa | 0 mm | - | 21 W/m² | - |
| 1788606147 | 16.67° C | 90% | 1010.8 hPa | 0 mm | - | 13 W/m² | - |
| 1788605842 | 16.11° C | 89% | 1010.6 hPa | 0 mm | - | 12 W/m² | - |
| 1788605541 | 16.67° C | 89% | 1010.5 hPa | 0 mm | - | 8 W/m² | - |
| 1788605236 | 16.67° C | 88% | 1010.6 hPa | 0 mm | - | 6 W/m² | - |
| 1788604932 | 16.67° C | 88% | 1010.4 hPa | 0 mm | - | 3 W/m² | - |
| 1788604627 | 16.67° C | 87% | 1010.2 hPa | 0 mm | - | 3 W/m² | - |
| 1788604323 | 16.67° C | 86% | 1010.4 hPa | 0 mm | - | 3 W/m² | - |
| 1788604018 | 16.67° C | 86% | 1010.3 hPa | 0 mm | - | 3 W/m² | - |
| 1788603715 | 16.67° C | 85% | 1010.2 hPa | 0 mm | - | 2 W/m² | - |
| 1788603413 | 16.67° C | 86% | 1010 hPa | 0 mm | - | 2 W/m² | - |
| 1788603112 | 16.67° C | 86% | 1010.1 hPa | 0 mm | - | 1 W/m² | - |
| 1788602808 | 16.67° C | 86% | 1009.9 hPa | 0 mm | - | 1 W/m² | - |
| 1788602503 | 16.67° C | 86% | 1009.9 hPa | 0 mm | - | 0 W/m² | - |
| 1788602197 | 16.67° C | 86% | 1009.9 hPa | 0 mm | - | 0 W/m² | - |
| 1788601897 | 16.67° C | 86% | 1009.8 hPa | 0 mm | - | 0 W/m² | - |
| 1788601592 | 16.67° C | 86% | 1009.8 hPa | 0 mm | - | 0 W/m² | - |
| 1788601291 | 16.67° C | 86% | 1009.7 hPa | 0 mm | - | 0 W/m² | - |
| 1788600987 | 16.67° C | 86% | 1009.8 hPa | 0 mm | - | 0 W/m² | - |
| 1788600683 | 16.67° C | 86% | 1009.8 hPa | 0 mm | - | 0 W/m² | - |
| 1788600383 | 16.67° C | 85% | 1009.7 hPa | 0 mm | - | 0 W/m² | - |
* Rain latest hour (hover to see other rain measurements)
** Current wind speed in m/s (hover to see current wind gust speed)